Find Rimsat G2

NORAD ID: 23108 Int'l Des: 1994-030 Owner: RIMSAT Country: US operational
HEOCIRCULAR

实时位置

正在加载3D地球...

关于 Rimsat G2

正在加载描述...

即将过境

Passes for default location (London). Set your location on the main map for personalized predictions.

高度历史

Loading altitude history...

两行轨道根数

1 23108U 94030A 26107.19849531 -.00000300 00000-0 00000-0 0 9990
2 23108 14.0855 348.6419 0005108 293.4992 298.5360 1.00193259116849
Epoch: Apr 17, 2026 • Age: 10 hours

当前状态

高度 35809.7 km
速度 3.07 km/s
星下点 6.76°N, 56.91°W
发射日期 May 20, 1994
运行时间 31.9 years
类型 other

技术详情

分类 Payload
质量 2120.00 kg
干质量 2000.00 kg
总质量 2120.00 kg
长度 5.50 m
直径 3.30 m
跨度 9.50 m
形状 Cyl + 2 Pan
制造商 NPOPMR
平台类型 Gorizont
阶段状态 Unknown Active Status
所有者/国家 RIMSAT/US

Most Searched